YMA7560 ENBO-ENGM

Flight info

Callsign YMA7560
Flight time N/A
Altitude 32000
Route RAVUK KALAP DISNU VFL TORMO BELGU
Aircraft B738/M-ICAO/L

Departure

Time 2026-04-28 09:47
Airport Bodø Airport (ENBO)

Arrival

Time N/A
Airport Oslo-Gardermoen International Airport (ENGM)
Time Latitude Longitude Altitude Speed Heading
2026-04-28 09:47 67.22578 14.20639 5713 ft 200 kts 224°
2026-04-28 09:47 67.21488 14.18238 6384 ft 216 kts 223°
2026-04-28 09:48 67.20322 14.15685 7036 ft 233 kts 223°
2026-04-28 09:48 67.19031 14.12865 7722 ft 250 kts 224°
2026-04-28 09:48 67.17671 14.09890 8390 ft 268 kts 224°
2026-04-28 09:48 67.16222 14.06727 9067 ft 284 kts 224°
2026-04-28 09:49 67.14690 14.03394 9810 ft 298 kts 224°
2026-04-28 09:49 67.13112 13.99979 10787 ft 303 kts 224°
2026-04-28 09:49 67.11415 13.96524 11503 ft 321 kts 218°
2026-04-28 09:49 67.09379 13.93938 12146 ft 343 kts 202°
2026-04-28 09:50 67.07031 13.92128 12802 ft 361 kts 197°
2026-04-28 09:50 67.04533 13.90528 13445 ft 380 kts 196°
2026-04-28 09:50 67.01955 13.88920 14098 ft 395 kts 196°
2026-04-28 09:50 66.99269 13.87195 14880 ft 407 kts 197°
2026-04-28 09:51 66.96502 13.85361 15829 ft 414 kts 197°
2026-04-28 09:51 66.93704 13.83468 16776 ft 421 kts 197°
2026-04-28 09:51 66.90891 13.81524 17701 ft 427 kts 198°
2026-04-28 09:51 66.88069 13.79261 18623 ft 432 kts 202°
2026-04-28 09:52 66.86284 13.77573 19136 ft 436 kts 204°
2026-04-28 09:52 66.83488 13.74681 19932 ft 443 kts 206°
2026-04-28 09:52 66.80672 13.71587 20731 ft 449 kts 207°
2026-04-28 09:52 66.77731 13.68628 21465 ft 459 kts 202°
2026-04-28 09:53 66.74633 13.66645 22242 ft 468 kts 193°
2026-04-28 09:53 66.71381 13.65871 22908 ft 479 kts 183°
2026-04-28 09:53 66.68077 13.66388 23626 ft 486 kts 173°
2026-04-28 09:53 66.64767 13.68183 24247 ft 494 kts 163°
2026-04-28 09:54 66.61549 13.71261 24913 ft 498 kts 154°
2026-04-28 09:54 66.58538 13.75519 25568 ft 500 kts 143°
2026-04-28 09:54 66.55817 13.80786 26146 ft 503 kts 135°
2026-04-28 09:54 66.54435 13.83991 26465 ft 505 kts 131°
2026-04-28 09:55 66.53440 13.86374 26739 ft 506 kts 132°
2026-04-28 09:55 66.50778 13.92200 27046 ft 522 kts 139°
2026-04-28 09:55 66.47733 13.97206 27607 ft 531 kts 148°
2026-04-28 09:55 66.44387 14.01115 28169 ft 538 kts 157°
2026-04-28 09:56 66.40800 14.03843 28675 ft 544 kts 167°
2026-04-28 09:56 66.37037 14.05264 29364 ft 544 kts 176°
2026-04-28 09:56 66.33284 14.05351 30013 ft 543 kts 186°
2026-04-28 09:56 66.29591 14.04143 30670 ft 538 kts 195°
2026-04-28 09:57 66.25982 14.01855 31333 ft 533 kts 202°
2026-04-28 09:57 66.22520 13.98762 31929 ft 529 kts 208°
2026-04-28 09:57 66.19265 13.94719 32344 ft 519 kts 220°
2026-04-28 09:57 66.16657 13.89020 32392 ft 494 kts 240°
2026-04-28 09:58 66.14892 13.81927 32401 ft 479 kts 254°
2026-04-28 09:58 66.13399 13.74639 32397 ft 481 kts 251°
2026-04-28 09:58 66.09405 13.61215 32380 ft 497 kts 236°
2026-04-28 09:59 66.06912 13.55263 32372 ft 511 kts 230°
2026-04-28 09:59 66.04106 13.49770 32358 ft 516 kts 224°
2026-04-28 09:59 65.97935 13.40682 32377 ft 525 kts 213°
2026-04-28 10:00 65.91210 13.33369 32410 ft 530 kts 207°
2026-04-28 10:00 65.84322 13.27124 32427 ft 536 kts 204°
2026-04-28 10:01 65.77197 13.21678 32426 ft 537 kts 201°
2026-04-28 10:01 65.70104 13.16533 32422 ft 538 kts 201°
2026-04-28 10:02 65.62968 13.11290 32412 ft 537 kts 202°
2026-04-28 10:02 65.55820 13.05941 32375 ft 537 kts 202°
2026-04-28 10:03 65.48708 13.00563 32334 ft 539 kts 202°
2026-04-28 10:03 65.41588 12.95186 32318 ft 538 kts 202°
2026-04-28 10:04 65.34483 12.89839 32342 ft 541 kts 202°
2026-04-28 10:04 65.27353 12.84499 32356 ft 540 kts 202°
2026-04-28 10:05 65.20205 12.79179 32363 ft 541 kts 202°
2026-04-28 10:05 65.18057 12.77589 32364 ft 539 kts 202°
2026-04-28 10:06 65.17919 12.77486 32364 ft 539 kts 202°
2026-04-28 10:06 65.13706 12.74375 32364 ft 541 kts 202°
2026-04-28 10:07 65.06548 12.69124 32355 ft 540 kts 202°
2026-04-28 10:07 64.99422 12.63917 32343 ft 542 kts 202°
2026-04-28 10:08 64.92241 12.58710 32349 ft 539 kts 202°
2026-04-28 10:08 64.85120 12.53568 32341 ft 541 kts 202°
2026-04-28 10:09 64.77917 12.48391 32319 ft 542 kts 202°
2026-04-28 10:09 64.70760 12.43284 32327 ft 540 kts 201°
2026-04-28 10:10 64.63594 12.38209 32366 ft 539 kts 202°
2026-04-28 10:10 64.56477 12.33183 32395 ft 540 kts 201°
2026-04-28 10:11 64.49253 12.28105 32410 ft 543 kts 200°
2026-04-28 10:11 64.42068 12.23089 32419 ft 541 kts 201°
2026-04-28 10:12 64.34906 12.18117 32425 ft 544 kts 201°
2026-04-28 10:12 64.27716 12.13150 32420 ft 541 kts 201°
2026-04-28 10:13 64.20498 12.08188 32402 ft 544 kts 200°
2026-04-28 10:13 64.13290 12.03265 32382 ft 543 kts 200°
2026-04-28 10:14 64.06046 11.98391 32386 ft 545 kts 199°
2026-04-28 10:14 63.98727 11.94224 32398 ft 546 kts 196°
2026-04-28 10:15 63.87216 11.88395 32388 ft 544 kts 195°
2026-04-28 10:15 63.57607 11.73290 32389 ft 547 kts 197°
2026-04-28 10:16 63.28081 11.57784 32336 ft 550 kts 197°
2026-04-28 10:16 62.98376 11.42720 32320 ft 549 kts 195°
2026-04-28 10:17 62.68653 11.28177 32363 ft 550 kts 194°
2026-04-28 10:17 62.53310 11.20738 32391 ft 549 kts 194°
2026-04-28 10:18 62.45885 11.17144 32376 ft 550 kts 194°
2026-04-28 10:18 62.38455 11.13565 32348 ft 549 kts 194°
2026-04-28 10:19 62.31011 11.10006 32321 ft 551 kts 194°
2026-04-28 10:19 62.23568 11.06467 32288 ft 551 kts 194°
2026-04-28 10:20 62.16088 11.02928 32288 ft 551 kts 194°
2026-04-28 10:20 62.08653 10.99434 32295 ft 551 kts 194°
2026-04-28 10:21 62.01212 10.95963 32311 ft 553 kts 194°
2026-04-28 10:21 61.93762 10.92501 32326 ft 550 kts 194°
2026-04-28 10:22 61.86282 10.89035 32336 ft 549 kts 194°
2026-04-28 10:22 61.78878 10.85619 31972 ft 545 kts 194°
2026-04-28 10:23 61.75200 10.83926 31716 ft 549 kts 194°
2026-04-28 10:23 61.71449 10.82204 31458 ft 551 kts 194°
2026-04-28 10:23 61.67695 10.80487 31196 ft 552 kts 194°
2026-04-28 10:23 61.63991 10.78801 30942 ft 552 kts 194°
2026-04-28 10:24 61.60238 10.77096 30694 ft 554 kts 194°
2026-04-28 10:24 61.56514 10.75409 30430 ft 552 kts 194°
2026-04-28 10:24 61.52794 10.73728 30175 ft 552 kts 194°
2026-04-28 10:24 61.49019 10.72023 29906 ft 550 kts 193°
2026-04-28 10:25 61.45336 10.70363 29645 ft 551 kts 194°
2026-04-28 10:25 61.41569 10.68671 29382 ft 549 kts 194°
2026-04-28 10:25 61.37875 10.67018 29128 ft 550 kts 194°
2026-04-28 10:25 61.34131 10.65345 28866 ft 548 kts 193°
2026-04-28 10:26 61.30461 10.63709 28603 ft 540 kts 193°
2026-04-28 10:26 61.26841 10.62104 28340 ft 523 kts 193°
2026-04-28 10:26 61.23349 10.60561 28079 ft 507 kts 194°
2026-04-28 10:26 61.19988 10.59086 27441 ft 502 kts 193°
2026-04-28 10:27 61.16547 10.57655 26309 ft 508 kts 192°
2026-04-28 10:27 61.13097 10.56297 25057 ft 514 kts 192°
2026-04-28 10:27 61.09590 10.54959 24000 ft 513 kts 192°
2026-04-28 10:27 61.06130 10.53666 23480 ft 500 kts 191°
2026-04-28 10:28 61.02774 10.52421 23011 ft 486 kts 191°
2026-04-28 10:28 60.99515 10.51211 22462 ft 476 kts 192°
2026-04-28 10:28 60.96294 10.50013 21897 ft 466 kts 192°
2026-04-28 10:29 60.90070 10.47688 20746 ft 449 kts 192°
2026-04-28 10:29 60.87030 10.46551 20166 ft 441 kts 192°
2026-04-28 10:29 60.84083 10.45451 19608 ft 433 kts 192°
2026-04-28 10:29 60.81152 10.44359 19048 ft 425 kts 192°
2026-04-28 10:30 60.78305 10.43298 18523 ft 416 kts 192°
2026-04-28 10:30 60.75507 10.42255 18009 ft 408 kts 192°
2026-04-28 10:30 60.72725 10.41221 17489 ft 400 kts 192°
2026-04-28 10:30 60.70057 10.40231 16992 ft 392 kts 192°
2026-04-28 10:31 60.67395 10.39245 16501 ft 385 kts 192°
2026-04-28 10:31 60.64808 10.38285 16016 ft 379 kts 192°
2026-04-28 10:31 60.62255 10.37337 15542 ft 372 kts 192°
2026-04-28 10:31 60.59727 10.36399 15073 ft 366 kts 192°
2026-04-28 10:32 60.57243 10.35481 14612 ft 360 kts 192°
2026-04-28 10:32 60.54829 10.34590 14166 ft 355 kts 192°
2026-04-28 10:32 60.52422 10.33701 13722 ft 349 kts 192°
2026-04-28 10:32 60.50045 10.32827 13277 ft 345 kts 192°
2026-04-28 10:33 60.47708 10.31969 12831 ft 340 kts 192°
2026-04-28 10:33 60.45434 10.31136 12402 ft 336 kts 192°
2026-04-28 10:33 60.43141 10.30410 11970 ft 332 kts 188°
2026-04-28 10:33 60.40858 10.29909 11542 ft 328 kts 186°
2026-04-28 10:34 60.38596 10.29517 11119 ft 325 kts 185°
2026-04-28 10:34 60.36367 10.29162 10702 ft 321 kts 185°
2026-04-28 10:34 60.34166 10.28812 10367 ft 315 kts 185°
2026-04-28 10:34 60.32047 10.28470 10158 ft 305 kts 185°
2026-04-28 10:35 60.29926 10.28119 9709 ft 305 kts 186°
2026-04-28 10:35 60.27830 10.27763 9399 ft 299 kts 186°
2026-04-28 10:35 60.25802 10.27419 9389 ft 294 kts 186°
2026-04-28 10:35 60.23740 10.27065 9389 ft 297 kts 186°
2026-04-28 10:36 60.21702 10.26713 9383 ft 294 kts 186°
2026-04-28 10:36 60.19674 10.26363 9383 ft 296 kts 186°
2026-04-28 10:36 60.17621 10.26014 9389 ft 295 kts 186°
2026-04-28 10:36 60.15608 10.25672 9394 ft 292 kts 185°
2026-04-28 10:37 60.13615 10.25299 9392 ft 280 kts 188°
2026-04-28 10:37 60.11754 10.24497 9393 ft 273 kts 199°
2026-04-28 10:37 60.09975 10.23260 9394 ft 272 kts 203°
2026-04-28 10:37 60.08209 10.21884 9390 ft 271 kts 204°
2026-04-28 10:38 60.06458 10.20534 9392 ft 271 kts 203°
2026-04-28 10:38 60.04694 10.19225 9408 ft 272 kts 202°
2026-04-28 10:38 60.02895 10.18051 9408 ft 274 kts 195°
2026-04-28 10:38 60.01015 10.17599 9424 ft 275 kts 182°
2026-04-28 10:39 59.99087 10.17651 9411 ft 273 kts 178°
2026-04-28 10:39 59.97189 10.17797 9415 ft 275 kts 178°
2026-04-28 10:39 59.95311 10.17905 9417 ft 272 kts 179°
2026-04-28 10:39 59.93410 10.17966 9421 ft 273 kts 179°
2026-04-28 10:40 59.91527 10.18235 9419 ft 273 kts 169°
2026-04-28 10:40 59.89690 10.19253 9432 ft 273 kts 158°
2026-04-28 10:40 59.87941 10.20618 9420 ft 272 kts 155°
2026-04-28 10:40 59.86197 10.22038 9431 ft 273 kts 156°
2026-04-28 10:41 59.84424 10.23428 9431 ft 273 kts 156°
2026-04-28 10:41 59.82650 10.24768 9454 ft 274 kts 156°
2026-04-28 10:41 59.80960 10.26368 9446 ft 271 kts 146°
2026-04-28 10:41 59.79423 10.28532 9452 ft 270 kts 138°
2026-04-28 10:42 59.78068 10.31026 9437 ft 264 kts 123°
2026-04-28 10:42 59.77215 10.34153 9444 ft 257 kts 102°
2026-04-28 10:42 59.77042 10.37558 9422 ft 244 kts 76°
2026-04-28 10:42 59.77574 10.40652 9412 ft 234 kts 54°
2026-04-28 10:43 59.78537 10.43157 9421 ft 229 kts 41°
2026-04-28 10:43 59.79679 10.45383 9426 ft 227 kts 38°
2026-04-28 10:43 59.80804 10.47503 9348 ft 221 kts 39°
2026-04-28 10:43 59.81885 10.49592 9163 ft 213 kts 39°
2026-04-28 10:44 59.82924 10.51632 8941 ft 208 kts 39°
2026-04-28 10:44 59.83962 10.53660 8732 ft 221 kts 39°
2026-04-28 10:44 59.85077 10.55843 8461 ft 227 kts 40°
2026-04-28 10:44 59.86183 10.58028 8207 ft 222 kts 40°
2026-04-28 10:45 59.87268 10.60182 7967 ft 219 kts 40°
2026-04-28 10:45 59.88331 10.62292 7711 ft 216 kts 40°
2026-04-28 10:45 59.89389 10.64385 7458 ft 213 kts 40°
2026-04-28 10:45 59.90423 10.66425 7224 ft 209 kts 41°
2026-04-28 10:46 59.91456 10.68463 7006 ft 215 kts 41°
2026-04-28 10:46 59.92548 10.70617 6741 ft 223 kts 41°
2026-04-28 10:46 59.93639 10.72792 6482 ft 224 kts 41°
2026-04-28 10:46 59.94727 10.74967 6311 ft 216 kts 42°
2026-04-28 10:47 59.95757 10.77027 6204 ft 207 kts 41°
2026-04-28 10:47 59.96756 10.79028 6079 ft 200 kts 43°
2026-04-28 10:47 59.97564 10.81224 5957 ft 197 kts 62°
2026-04-28 10:47 59.97921 10.83872 5795 ft 197 kts 75°
2026-04-28 10:48 59.98183 10.86539 5585 ft 195 kts 73°
2026-04-28 10:48 59.98478 10.89125 5398 ft 192 kts 72°
2026-04-28 10:48 59.98799 10.91736 5222 ft 194 kts 71°
2026-04-28 10:48 59.99164 10.94324 5043 ft 193 kts 64°
2026-04-28 10:49 59.99929 10.96398 4863 ft 188 kts 32°
2026-04-28 10:49 60.01140 10.97365 4584 ft 187 kts 14°
2026-04-28 10:49 60.02392 10.98099 4315 ft 189 kts 15°
2026-04-28 10:49 60.03642 10.98857 4071 ft 190 kts 15°
2026-04-28 10:50 60.04899 10.99593 3874 ft 188 kts 15°
2026-04-28 10:50 60.06157 11.00322 3594 ft 190 kts 15°